Home > Weather > Qaanaaq > Past weeks

Flag for Greenland Past Weather in Qaanaaq, Greenland — Yesterday and Last 2 Weeks

Now
46 °F

Sunny.


Feels Like: 43 °F
Forecast: N/A
Wind: 7 mph from West

Location: Thule A. B.

Current Time: Jun 27, 2016 at 8:17:28 PM

Latest Report: Jun 27, 2016 at 6:58 PM


Visibility: N/A

Pressure: 29.80 "Hg

Humidity: 62%

Dew Point: 34 °F

Location of QaanaaqLocation

Past Weather in Qaanaaq — Graph

°F

Qaanaaq Temperature Yesterday

Maximum temperature yesterday: 45 °F (at 6:58 AM)
Minimum temperature yesterday: 39 °F (at 12:58 AM)
Average temperature yesterday: 42 °F

High & Low Weather Summary for the Past Weeks

 TemperatureHumidityPressure
High52 °F (Jun 18, 11:58 AM)93% (Jun 23, 7:59 PM)30.14 "Hg (Jun 23, 7:59 PM)
Low30 °F (Jun 17, 3:58 AM)32% (Jun 18, 12:01 PM)29.44 "Hg (Jun 24, 1:58 AM)
Average36 °F79%29.72 "Hg
* Reported Jun 12 6:58 PM — Jun 27 6:58 PM, Qaanaaq, Weather by CustomWeather, © 2016

Note: Actual official high and low records may vary slightly from our data, if they occured in-between our weather recording intervals... More about our weather records

Advertising

Qaanaaq Weather History for the Previous 24 Hours

Scroll right to see more
 ConditionsComfort  
Time TempWeatherWind HumidityBarometerVisibility
6:58 PM
Mon, Jun 27
46 °FSunny.7 mph62%29.80 "HgN/A
5:58 PM46 °FSunny.9 mph57%29.80 "HgN/A
4:58 PM45 °FSunny.8 mph66%29.80 "HgN/A
3:58 PM46 °FSunny.6 mph66%29.80 "HgN/A
2:58 PM46 °FOvercast.6 mph71%29.81 "HgN/A
1:58 PM49 °FScattered clouds.9 mph51%29.82 "HgN/A
12:58 PM50 °FPartly sunny.6 mph47%29.82 "HgN/A
11:58 AM46 °FSunny.5 mph71%29.83 "HgN/A
10:58 AM45 °FScattered clouds.3 mph76%29.83 "HgN/A
9:58 AM43 °FOvercast.No wind81%29.83 "HgN/A
8:58 AM41 °FOvercast.1 mph81%29.84 "HgN/A
7:58 AM41 °FMostly cloudy.3 mph81%29.84 "HgN/A
6:58 AM39 °FMostly cloudy.3 mph87%29.83 "HgN/A
5:58 AM39 °FOvercast.No wind87%29.83 "HgN/A
4:58 AM39 °FBroken clouds.No wind87%29.83 "HgN/A
3:58 AM39 °FSunny.2 mph87%29.82 "HgN/A
2:58 AM39 °FScattered clouds.3 mph87%29.82 "HgN/A
2:03 AM37 °FFog.No wind93%29.87 "Hg1 mi
1:58 AM37 °FFog.No wind93%29.83 "Hg1 mi
12:58 AM37 °FPassing clouds.3 mph93%29.82 "HgN/A
12:04 AM37 °FFog.1 mph93%29.87 "Hg2 mi
10:58 PM
Sun, Jun 26
41 °FSunny.8 mph81%29.81 "HgN/A
9:58 PM41 °FSunny.6 mph87%29.81 "HgN/A
8:58 PM43 °FSunny.1 mph76%29.80 "HgN/A
Weather by CustomWeather, © 2016

See weather overviewHow to use our weather pages